Time,TemperatureF,DewpointF,PressureIn,WindDirection,WindDirectionDegrees,WindSpeedMPH,WindSpeedGustMPH,Humidity,HourlyPrecipIn,Conditions,Clouds,dailyrainin,SoftwareType,DateUTC
2013-06-11 00:00:00,69.5,68.3,29.88,SSW,202,5.0,12.0,96,0.00,,,0.00,VWS V14.01,2013-06-11 04:00:00,
2013-06-11 00:30:00,69.1,68.2,29.87,SW,225,5.0,10.0,97,0.00,,,0.00,VWS V14.01,2013-06-11 04:30:00,
2013-06-11 01:00:00,69.0,67.8,29.87,SW,225,6.0,11.0,96,0.00,,,0.00,VWS V14.01,2013-06-11 05:00:00,
2013-06-11 01:30:00,68.3,67.4,29.85,SSW,202,4.0,8.0,97,0.00,,,0.00,VWS V14.01,2013-06-11 05:30:00,
2013-06-11 02:00:00,68.1,67.2,29.85,SSW,202,2.0,7.0,97,0.00,,,0.00,VWS V14.01,2013-06-11 06:00:00,
2013-06-11 02:30:00,67.8,66.9,29.86,SW,225,4.0,8.0,97,0.00,,,0.00,VWS V14.01,2013-06-11 06:30:00,
2013-06-11 03:00:00,67.7,66.8,29.84,SSW,202,3.0,7.0,97,0.00,,,0.00,VWS V14.01,2013-06-11 07:00:00,
2013-06-11 03:30:00,67.6,66.7,29.87,WSW,248,2.0,5.0,97,0.00,,,0.00,VWS V14.01,2013-06-11 07:30:00,
2013-06-11 04:00:00,67.8,67.2,29.87,SW,225,4.0,8.0,98,0.04,,,0.04,VWS V14.01,2013-06-11 08:00:00,
2013-06-11 04:30:00,67.6,67.0,29.84,South,180,1.0,6.0,98,0.06,,,0.06,VWS V14.01,2013-06-11 08:30:00,
2013-06-11 05:00:00,67.2,66.6,29.83,SW,225,2.0,7.0,98,0.06,,,0.06,VWS V14.01,2013-06-11 09:00:00,
2013-06-11 05:30:00,67.2,66.6,29.84,SW,225,2.0,5.0,98,0.02,,,0.06,VWS V14.01,2013-06-11 09:30:00,
2013-06-11 06:00:00,67.0,66.4,29.84,SSW,202,2.0,7.0,98,0.00,,,0.06,VWS V14.01,2013-06-11 10:00:00,
2013-06-11 06:30:00,66.7,66.4,29.85,SSW,202,3.0,7.0,99,0.00,,,0.06,VWS V14.01,2013-06-11 10:30:00,
2013-06-11 07:00:00,66.6,66.3,29.86,SSW,202,4.0,7.0,99,0.00,,,0.06,VWS V14.01,2013-06-11 11:00:00,
2013-06-11 07:30:00,67.1,66.5,29.86,SSW,202,5.0,10.0,98,0.00,,,0.06,VWS V14.01,2013-06-11 11:30:00,
2013-06-11 08:00:00,69.0,67.8,29.88,SW,225,4.0,8.0,96,0.00,,,0.06,VWS V14.01,2013-06-11 12:00:00,
2013-06-11 08:30:00,70.8,66.4,29.88,WSW,248,5.0,11.0,86,0.01,,,0.07,VWS V14.01,2013-06-11 12:30:00,
2013-06-11 09:00:00,71.9,66.8,29.89,WSW,248,4.0,13.0,84,0.01,,,0.07,VWS V14.01,2013-06-11 13:00:00,
2013-06-11 09:30:00,73.4,66.9,29.89,West,270,4.0,12.0,80,0.01,,,0.07,VWS V14.01,2013-06-11 13:30:00,
2013-06-11 10:00:00,74.8,67.5,29.90,WSW,248,5.0,12.0,78,0.00,,,0.07,VWS V14.01,2013-06-11 14:00:00,
2013-06-11 10:30:00,75.9,67.4,29.90,West,270,4.0,14.0,75,0.00,,,0.07,VWS V14.01,2013-06-11 14:30:00,
2013-06-11 11:00:00,76.3,67.0,29.89,WSW,248,5.0,16.0,73,0.00,,,0.07,VWS V14.01,2013-06-11 15:00:00,
2013-06-11 11:30:00,77.8,67.7,29.90,WSW,248,5.0,13.0,71,0.00,,,0.07,VWS V14.01,2013-06-11 15:30:00,
2013-06-11 12:00:00,79.0,66.2,29.90,West,270,3.0,10.0,65,0.00,,,0.07,VWS V14.01,2013-06-11 16:00:00,
2013-06-11 12:30:00,78.3,65.6,29.89,WSW,248,4.0,14.0,65,0.00,,,0.07,VWS V14.01,2013-06-11 16:30:00,
2013-06-11 13:00:00,81.0,68.6,29.89,West,270,3.0,11.0,66,0.00,,,0.07,VWS V14.01,2013-06-11 17:00:00,
2013-06-11 13:30:00,81.1,67.3,29.89,West,270,4.0,16.0,63,0.00,,,0.07,VWS V14.01,2013-06-11 17:30:00,
2013-06-11 14:00:00,79.2,66.0,29.89,West,270,3.0,11.0,64,0.00,,,0.07,VWS V14.01,2013-06-11 18:00:00,
2013-06-11 14:30:00,80.9,65.7,29.88,WSW,248,4.0,15.0,60,0.00,,,0.07,VWS V14.01,2013-06-11 18:30:00,
2013-06-11 15:00:00,79.0,67.1,29.89,WSW,248,3.0,10.0,67,0.00,,,0.07,VWS V14.01,2013-06-11 19:00:00,
2013-06-11 15:30:00,79.8,70.4,29.88,WSW,248,2.0,7.0,73,0.00,,,0.07,VWS V14.01,2013-06-11 19:30:00,
2013-06-11 16:00:00,81.5,68.6,29.87,WSW,248,4.0,8.0,65,0.00,,,0.07,VWS V14.01,2013-06-11 20:00:00,
2013-06-11 16:30:00,83.6,71.1,29.87,West,270,4.0,10.0,66,0.00,,BKN075,0.07,VWS V14.00,2013-06-11 20:30:00,
2013-06-11 17:00:00,82.4,71.2,29.87,WSW,248,2.0,7.0,69,0.00,,BKN075,0.07,VWS V14.00,2013-06-11 21:00:00,
2013-06-11 17:30:00,83.4,67.1,29.86,WSW,248,4.0,13.0,58,0.00,,,0.07,VWS V14.01,2013-06-11 21:30:00,
2013-06-11 18:00:00,82.0,67.2,29.86,WSW,248,4.0,13.0,61,0.00,,,0.07,VWS V14.01,2013-06-11 22:00:00,
2013-06-11 18:30:00,82.9,67.1,29.86,WSW,248,3.0,7.0,59,0.00,,,0.07,VWS V14.01,2013-06-11 22:30:00,
2013-06-11 19:00:00,82.9,68.6,29.86,WSW,248,3.0,10.0,62,0.00,,,0.07,VWS V14.01,2013-06-11 23:00:00,
2013-06-11 19:30:00,81.5,67.2,29.87,WSW,248,2.0,6.0,62,0.00,,,0.07,VWS V14.01,2013-06-11 23:30:00,
2013-06-11 20:00:00,78.8,67.8,29.87,WSW,248,2.0,5.0,69,0.00,,,0.07,VWS V14.01,2013-06-12 00:00:00,
2013-06-11 20:30:00,76.4,68.3,29.87,WSW,248,2.0,7.0,76,0.00,,,0.07,VWS V14.01,2013-06-12 00:30:00,
2013-06-11 21:00:00,74.4,67.1,29.87,West,270,1.0,5.0,78,0.00,,BKN075,0.07,VWS V14.00,2013-06-12 01:00:00,
2013-06-11 21:06:00,76.4,68.3,29.87,WSW,248,2.0,7.0,76,0.00,,,0.07,VWS V14.01,2013-06-12 01:06:00,
2013-06-11 21:11:00,74.0,66.0,29.88,WSW,252,1.0,3.0,76,0.00,,,0.07,VWS V14.01,2013-06-12 01:11:00,
2013-06-11 21:16:00,73.8,65.4,29.88,WSW,252,1.0,3.0,75,0.00,,,0.07,VWS V14.01,2013-06-12 01:16:00,
2013-06-11 21:21:00,73.8,65.8,29.88,WSW,246,1.0,3.0,76,0.00,,,0.07,VWS V14.01,2013-06-12 01:21:00,
2013-06-11 21:26:00,73.7,66.1,29.89,WSW,246,1.0,3.0,77,0.00,,,0.07,VWS V14.01,2013-06-12 01:26:00,
2013-06-11 21:30:00,73.6,66.7,29.89,WSW,248,1.0,4.0,79,0.00,,BKN075,0.07,VWS V14.00,2013-06-12 01:30:00,
2013-06-11 21:31:00,73.5,65.5,29.89,WSW,246,0.0,0.0,76,0.00,,,0.07,VWS V14.01,2013-06-12 01:31:00,
2013-06-11 21:36:00,73.4,65.4,29.89,WSW,246,0.0,2.0,76,0.00,,,0.07,VWS V14.01,2013-06-12 01:36:00,
2013-06-11 21:41:00,73.1,65.5,29.89,WSW,246,0.0,2.0,77,0.00,,,0.07,VWS V14.01,2013-06-12 01:41:00,
2013-06-11 21:46:00,72.9,65.3,29.89,WSW,246,0.0,2.0,77,0.00,,,0.07,VWS V14.01,2013-06-12 01:46:00,
2013-06-11 21:51:00,72.8,65.6,29.90,WSW,246,0.0,2.0,78,0.00,,,0.07,VWS V14.01,2013-06-12 01:51:00,
2013-06-11 21:57:00,72.6,67.2,29.90,WSW,253,0.0,2.0,83,0.00,,,0.07,VWS V14.01,2013-06-12 01:57:00,
2013-06-11 22:00:00,72.4,67.6,29.90,WSW,248,0.0,2.0,85,0.00,,BKN075,0.07,VWS V14.00,2013-06-12 02:00:00,
2013-06-11 22:01:00,72.3,66.5,29.90,WSW,253,0.0,2.0,82,0.00,,CLR,0.07,VWS V14.01,2013-06-12 02:01:00,
2013-06-11 22:06:00,72.0,65.5,29.90,WSW,254,0.0,3.0,80,0.00,,CLR,0.07,VWS V14.01,2013-06-12 02:06:00,
2013-06-11 22:12:00,71.9,65.4,29.91,WSW,254,0.0,3.0,80,0.00,,CLR,0.07,VWS V14.01,2013-06-12 02:12:00,
2013-06-11 22:17:00,71.9,65.0,29.91,WSW,254,0.0,3.0,79,0.00,,CLR,0.07,VWS V14.01,2013-06-12 02:17:00,
2013-06-11 22:22:00,71.8,65.3,29.91,SW,230,2.0,4.0,80,0.00,,CLR,0.07,VWS V14.01,2013-06-12 02:22:00,
2013-06-11 22:27:00,71.9,65.0,29.91,SW,231,2.0,4.0,79,0.00,,CLR,0.07,VWS V14.01,2013-06-12 02:27:00,
2013-06-11 22:30:00,71.9,66.1,29.91,SW,225,1.0,4.0,82,0.00,,BKN075,0.07,VWS V14.00,2013-06-12 02:30:00,
2013-06-11 22:32:00,71.9,65.0,29.91,SW,231,2.0,2.0,79,0.00,,CLR,0.07,VWS V14.01,2013-06-12 02:32:00,
2013-06-11 22:37:00,71.9,65.0,29.91,SW,231,0.0,2.0,79,0.00,,CLR,0.07,VWS V14.01,2013-06-12 02:37:00,
2013-06-11 22:42:00,71.8,64.9,29.91,SW,231,0.0,2.0,79,0.00,,CLR,0.07,VWS V14.01,2013-06-12 02:42:00,
2013-06-11 22:47:00,71.7,65.2,29.91,SW,231,0.0,2.0,80,0.00,,CLR,0.07,VWS V14.01,2013-06-12 02:47:00,
2013-06-11 22:52:00,71.6,65.1,29.91,SW,231,0.0,2.0,80,0.00,,CLR,0.07,VWS V14.01,2013-06-12 02:52:00,
2013-06-11 22:57:00,71.5,64.7,29.91,SW,231,0.0,2.0,79,0.00,,CLR,0.07,VWS V14.01,2013-06-12 02:57:00,
2013-06-11 23:00:00,71.5,65.7,29.91,SW,225,0.0,3.0,82,0.00,,BKN075,0.07,VWS V14.00,2013-06-12 03:00:00,
2013-06-11 23:02:00,71.5,64.3,29.91,SW,231,0.0,2.0,78,0.00,,CLR,0.07,VWS V14.01,2013-06-12 03:02:00,
2013-06-11 23:07:00,71.5,64.3,29.91,SW,231,0.0,2.0,78,0.00,,CLR,0.07,VWS V14.01,2013-06-12 03:07:00,
2013-06-11 23:12:00,71.5,64.7,29.91,SW,231,0.0,3.0,79,0.00,,CLR,0.07,VWS V14.01,2013-06-12 03:12:00,
2013-06-11 23:17:00,71.5,65.0,29.92,SW,231,0.0,3.0,80,0.00,,CLR,0.07,VWS V14.01,2013-06-12 03:17:00,
2013-06-11 23:22:00,71.3,64.8,29.92,SSW,207,0.0,3.0,80,0.00,,CLR,0.07,VWS V14.01,2013-06-12 03:22:00,
2013-06-11 23:27:00,71.3,64.8,29.92,SSW,207,0.0,3.0,80,0.00,,CLR,0.07,VWS V14.01,2013-06-12 03:27:00,
2013-06-11 23:30:00,71.3,65.9,29.91,SSW,202,0.0,3.0,83,0.00,,BKN075,0.07,VWS V14.00,2013-06-12 03:30:00,
2013-06-11 23:32:00,71.4,64.9,29.91,SSW,207,1.0,1.0,80,0.00,,CLR,0.07,VWS V14.01,2013-06-12 03:32:00,
2013-06-11 23:37:00,71.4,66.0,29.91,SSW,207,0.0,2.0,83,0.00,,CLR,0.07,VWS V14.01,2013-06-12 03:37:00,
2013-06-11 23:42:00,71.1,64.6,29.91,SSW,192,1.0,3.0,80,0.00,,CLR,0.07,VWS V14.01,2013-06-12 03:42:00,
2013-06-11 23:47:00,71.0,64.5,29.91,SW,228,1.0,4.0,80,0.00,,CLR,0.07,VWS V14.01,2013-06-12 03:47:00,
2013-06-11 23:52:00,70.9,64.4,29.91,SW,228,0.0,4.0,80,0.00,,CLR,0.07,VWS V14.01,2013-06-12 03:52:00,
2013-06-11 23:57:00,70.8,64.7,29.91,SW,229,1.0,4.0,81,0.00,,CLR,0.07,VWS V14.01,2013-06-12 03:57:00,